Lapse_Rate
4.9 4.9 4.9 4.9 4.8 4.7 4.7 4.7 4.7 4.7 4.7 4.9 5.1 5.2 5.2 5.5 5.7 5.6 5.7 5.8 5.9 5.9 5.8 5.9 5.8 5.9 5.9 6.1 6.0 5.9 5.9 6.1 6.1 6.1 6.0 6.1 6.4 6.3 6.1 6.2 6.0 6.4 5.9 5.5 5.7 5.3 4.9
4.9 5.1 5.0 4.9 4.8 4.6 4.7 4.7 4.7 4.7 4.8 5.0 5.2 5.3 5.3 5.4 5.6 5.7 5.8 5.9 6.0 6.1 6.1 6.1 6.0 6.0 6.1 5.9 6.1 5.7 5.7 6.0 6.1 6.0 6.1 6.0 6.3 6.0 6.0 6.0 5.9 5.9 5.9 5.8 6.3 6.1 5.1
5.2 5.1 5.0 5.1 4.9 4.8 4.6 4.5 4.5 4.6 4.7 4.9 5.3 5.4 5.4 5.5 5.6 5.7 5.8 6.0 6.1 6.1 6.3 6.4 6.3 6.2 6.2 5.9 6.0 5.7 5.8 6.0 6.1 6.1 6.2 5.8 5.6 5.5 5.7 5.8 5.6 5.9 6.3 6.2 7.0 6.4 5.6
5.3 5.4 5.5 5.4 5.3 5.1 4.9 4.8 4.7 4.8 4.9 5.0 5.1 5.3 5.5 5.5 5.6 5.8 5.7 6.0 6.0 6.3 6.2 6.4 6.4 6.4 6.0 6.3 6.5 6.0 6.2 6.2 6.3 6.2 5.7 5.4 5.4 5.5 5.8 5.5 5.7 6.2 6.4 6.6 6.9 6.4 6.1
5.4 5.4 5.5 5.3 5.2 5.0 4.9 4.8 4.8 4.8 4.9 4.9 5.0 5.2 5.2 5.2 5.4 5.6 5.6 5.8 6.1 6.2 6.3 6.2 6.3 6.3 6.2 6.2 6.5 6.3 6.1 6.1 6.2 6.1 5.7 5.0 5.0 5.4 5.3 5.5 5.7 6.2 6.7 6.8 6.6 5.9 6.1
5.5 5.4 5.3 5.2 5.1 4.9 4.8 4.8 4.8 4.9 5.0 5.1 5.4 5.7 5.4 5.3 5.4 5.4 5.5 5.8 6.1 6.1 6.1 6.4 6.1 6.2 6.2 6.1 6.0 6.5 6.1 6.3 5.9 5.9 5.6 5.1 5.1 5.2 5.5 5.5 6.0 6.3 6.8 6.8 6.6 6.4 6.1
5.2 5.0 5.1 5.1 5.0 5.0 4.9 4.9 5.0 5.1 5.3 5.8 6.3 6.5 6.5 6.3 6.2 6.2 6.1 6.1 6.2 6.0 6.2 6.2 6.4 6.1 6.1 5.8 5.9 5.9 6.1 5.9 5.8 5.8 5.6 5.4 5.2 5.5 5.9 6.0 6.2 6.5 6.8 6.9 7.2 6.5 6.3
5.1 5.1 5.0 4.9 4.9 4.9 4.9 5.1 5.2 5.2 5.9 6.6 6.7 6.7 6.8 6.8 6.7 6.7 6.4 6.0 5.9 5.7 6.0 6.2 6.2 6.0 6.0 6.0 5.9 5.8 5.8 5.6 5.8 6.0 5.6 5.3 5.6 5.9 6.0 6.1 6.1 6.4 6.7 7.2 7.5 7.3 6.8
5.4 5.3 5.2 5.2 5.2 5.1 5.2 5.2 5.2 5.8 6.5 6.7 6.7 6.8 7.0 7.0 6.8 6.6 6.4 6.1 6.0 6.3 6.4 6.4 6.4 6.3 6.2 6.0 6.0 6.0 5.7 5.5 5.8 5.9 5.7 5.6 6.2 6.0 6.2 6.2 6.0 6.3 6.6 7.4 7.3 7.4 7.2
5.4 5.3 5.3 5.2 5.2 5.3 5.2 5.2 5.4 6.2 6.6 6.6 6.8 6.9 7.0 7.1 6.9 6.6 6.5 6.5 6.3 6.9 7.0 6.9 6.6 6.6 6.3 6.2 6.1 5.9 5.7 5.6 5.5 5.8 5.8 5.9 6.3 6.0 6.0 6.1 6.1 6.4 7.1 7.4 7.3 7.3 7.4
5.6 5.4 5.4 5.2 5.3 5.4 5.4 5.5 5.9 6.4 6.6 6.7 6.8 6.9 7.0 7.5 7.3 6.8 7.1 7.2 7.1 7.2 6.9 7.6 7.0 7.0 6.7 6.6 6.5 6.1 5.8 5.8 5.8 5.8 5.6 5.9 6.3 6.3 6.3 6.6 6.5 7.2 7.4 7.7 7.6 7.4 7.4
5.5 5.6 5.6 5.5 5.6 5.7 5.7 5.8 6.5 6.6 6.7 6.7 6.9 7.0 7.3 7.8 7.6 7.0 7.0 7.2 7.3 7.3 7.6 7.5 7.3 7.2 7.0 6.8 6.7 6.3 6.1 6.0 6.0 6.0 5.8 6.2 6.3 6.4 6.7 6.8 6.8 7.3 7.1 7.2 7.8 7.8 6.8
5.7 5.9 5.7 5.7 5.8 5.8 6.1 6.6 6.9 6.9 6.9 6.7 6.8 7.0 7.2 7.5 7.4 7.5 7.3 7.3 7.5 7.6 8.0 8.1 8.0 7.6 7.3 7.1 7.2 7.0 6.8 6.4 6.3 6.1 6.2 6.4 6.5 6.6 6.8 6.9 7.0 7.2 7.3 7.0 6.6 6.6 6.1
5.8 5.8 5.8 5.9 6.0 6.2 6.5 7.1 7.3 7.1 6.9 6.5 6.4 6.6 7.1 7.6 7.7 7.4 7.7 8.0 7.9 7.7 7.6 8.1 8.0 8.0 7.7 7.6 7.4 7.1 6.9 6.5 6.2 6.2 6.2 6.5 6.6 6.7 6.6 7.1 7.2 7.2 7.4 7.2 6.0 5.2 6.9
5.9 5.9 5.9 6.0 6.3 6.4 7.1 7.6 7.5 7.1 6.9 6.7 6.4 6.7 7.1 7.4 7.6 8.1 8.4 7.5 7.1 7.3 7.9 8.3 8.3 8.0 7.7 7.7 7.6 7.5 7.1 6.4 6.3 6.4 6.3 6.4 6.4 6.4 6.4 6.8 7.2 7.2 7.2 7.2 7.2 6.7 7.3
6.0 6.0 6.0 6.2 6.4 6.7 7.3 7.7 7.7 7.5 7.2 6.9 6.8 7.0 7.0 7.0 7.5 8.1 8.8 7.9 7.4 7.6 8.0 8.5 8.4 7.8 8.0 8.2 7.8 7.4 6.7 6.0 6.0 6.3 6.4 6.5 6.7 6.8 6.5 6.9 7.0 7.3 7.0 7.0 7.1 5.6 6.6
6.2 6.1 6.2 6.5 6.5 6.8 7.3 7.7 7.7 7.4 7.4 7.2 7.0 6.9 6.9 7.2 7.6 7.9 8.3 7.5 7.8 7.8 7.9 8.2 8.0 7.8 7.8 8.0 7.8 7.1 6.1 6.0 6.0 6.0 6.3 6.6 6.9 7.0 7.1 6.6 6.4 7.0 6.7 6.8 7.0 6.8 5.2
6.4 6.2 6.3 6.5 6.5 6.8 7.3 7.5 7.6 7.5 7.4 7.3 7.3 7.3 7.1 7.4 7.4 7.7 7.6 7.8 7.5 7.5 7.6 8.0 7.9 8.1 8.1 7.9 7.5 7.0 6.2 6.1 5.9 6.0 6.2 6.6 7.1 7.3 6.9 6.9 6.3 6.6 5.7 6.4 6.5 6.3 6.6
6.5 6.3 6.3 6.6 6.6 6.8 7.1 7.2 7.5 7.6 7.4 7.5 7.3 7.3 7.1 6.8 7.0 7.1 7.1 7.3 7.3 7.4 7.2 7.5 7.4 7.6 7.8 7.7 7.1 6.2 6.0 5.4 6.1 6.7 6.7 7.1 7.0 7.2 6.8 6.6 6.6 6.2 5.6 5.6 5.9 6.0 5.8
6.6 6.5 6.4 6.6 6.6 6.7 6.9 7.0 7.3 7.5 7.7 7.5 7.0 7.0 6.9 6.8 6.4 6.5 6.5 6.5 6.4 6.2 6.6 6.9 6.9 6.8 6.9 7.3 6.8 5.9 5.6 5.5 6.0 6.6 6.5 7.0 6.8 6.5 6.3 5.9 5.8 5.8 5.6 5.4 5.8 5.9 6.1
6.4 6.6 6.5 6.6 6.7 6.6 6.8 6.8 7.1 7.5 7.5 7.7 7.6 7.4 6.8 6.3 6.4 6.2 6.2 6.1 6.0 5.9 5.9 6.0 6.4 6.5 6.5 6.5 6.6 6.0 5.9 5.7 5.6 6.0 6.1 6.4 5.7 5.6 5.6 5.5 5.5 5.4 5.7 5.5 5.3 5.8 6.1
6.3 6.7 6.6 6.6 6.6 6.6 6.7 6.7 6.9 7.4 7.6 7.5 7.7 7.5 7.1 6.9 6.6 6.5 6.4 6.5 6.4 6.1 6.1 6.2 6.2 6.3 6.3 6.2 6.4 6.1 6.0 5.7 5.7 5.8 5.8 5.9 5.6 5.4 5.4 5.5 5.3 5.5 5.9 6.1 5.9 5.9 5.9
6.2 6.8 6.6 6.5 6.5 6.5 6.5 6.5 6.8 7.2 7.4 7.4 7.4 7.3 7.3 7.2 7.0 6.9 6.9 6.8 6.7 6.4 6.2 6.2 6.2 6.2 6.2 6.3 6.4 6.3 6.4 6.2 5.9 5.8 5.4 5.4 5.4 5.2 5.1 5.4 5.7 5.8 5.3 5.3 5.4 5.8 5.9
6.3 6.8 6.6 6.6 6.5 6.4 6.4 6.4 6.7 6.9 7.3 7.4 7.2 7.2 7.2 7.3 7.1 7.1 7.2 6.9 6.8 6.7 6.4 6.1 6.0 6.1 6.0 6.1 6.1 6.0 5.9 5.8 5.7 5.4 5.1 4.9 5.0 4.9 4.7 4.7 4.4 5.5 5.5 5.6 5.5 5.4 5.7
6.2 6.7 6.7 6.7 6.5 6.3 6.3 6.3 6.4 6.7 7.0 7.3 7.1 7.1 7.1 7.2 7.1 6.9 7.0 6.8 6.6 6.4 6.1 5.9 5.9 5.9 5.9 5.9 5.6 5.5 5.3 5.1 4.7 4.7 4.8 4.8 4.8 4.7 4.6 4.7 5.3 5.8 6.3 6.3 5.8 5.7 5.7
6.2 6.6 6.6 6.7 6.5 6.3 6.2 6.3 6.3 6.4 6.7 7.0 6.8 6.9 6.9 6.9 6.9 6.9 6.8 6.8 6.7 6.5 6.4 6.1 5.9 5.6 5.5 5.5 5.6 5.4 5.4 5.4 5.2 5.2 5.0 5.0 4.8 4.9 5.1 5.4 4.8 5.8 6.2 6.2 6.1 5.8 5.8
6.1 6.7 6.6 6.6 6.7 6.4 6.3 6.3 6.1 6.3 6.6 6.7 6.8 6.9 6.8 6.6 6.7 6.8 6.8 6.7 6.7 6.6 6.4 6.3 6.2 5.9 5.8 5.6 5.5 5.2 5.1 5.3 5.4 5.4 5.0 5.0 5.2 5.2 5.3 5.2 5.7 6.1 6.7 7.2 6.7 6.3 6.6
6.1 6.6 6.6 6.7 6.8 6.6 6.5 6.4 6.2 6.3 6.5 6.5 6.7 6.7 6.8 6.8 6.7 6.7 6.6 6.4 6.6 6.5 6.4 6.3 6.1 6.0 5.7 5.5 5.2 5.2 5.4 5.4 5.6 5.7 5.5 5.5 5.4 5.1 4.8 4.7 5.2 5.8 6.3 6.6 7.3 7.4 7.5
6.3 6.5 6.7 6.7 6.8 6.7 6.7 6.7 6.5 6.6 6.8 6.5 6.5 6.5 6.6 6.7 6.6 6.4 6.3 6.5 6.5 6.3 6.1 6.2 6.1 6.0 6.0 6.0 5.8 5.6 5.4 5.1 5.3 5.5 5.6 5.4 5.4 5.2 5.3 5.6 5.8 5.7 6.1 6.4 6.5 6.8 6.9
Wind_Speed
18 18 18 18 18 18 19 20 20 21 21 22 23 23 23 23 22 22 22 21 20 18 14 10 6 2 1 1 8 2 21 15 10 8 8 7 6 5 5 4 4 6 11 7 8 9 8
16 18 18 18 18 19 19 20 20 21 22 22 22 23 24 24 23 23 23 23 20 18 13 10 5 5 1 3 3 14 16 9 7 6 6 7 7 6 1 3 1 3 6 10 10 10 10
15 17 18 18 20 21 21 22 22 23 23 24 25 25 25 25 25 24 25 24 23 17 13 9 3 4 1 9 2 14 13 7 9 8 7 5 2 2 2 4 4 10 10 6 4 8 5
15 17 18 19 20 20 22 23 24 24 25 25 26 26 26 26 27 26 26 26 25 18 11 6 6 2 6 4 6 7 5 4 3 4 3 7 3 1 2 4 5 3 3 3 3 8 7
15 16 17 18 19 20 21 22 23 25 26 26 27 28 28 28 27 26 26 29 23 5 7 9 2 2 8 5 5 9 9 6 7 3 4 6 6 4 1 1 4 6 1 2 2 5 6
15 16 17 18 20 21 21 22 24 24 26 27 28 27 27 28 27 26 26 23 4 13 4 5 4 3 5 4 4 6 7 10 5 7 4 4 2 2 2 3 4 2 2 2 1 6 4
16 16 17 19 21 22 23 24 25 25 27 27 28 28 28 29 28 24 12 3 2 2 2 8 6 4 3 7 3 4 7 7 5 5 5 4 4 5 7 6 5 3 3 3 3 4 5
17 18 20 21 22 23 24 24 25 27 28 27 27 29 29 29 29 27 2 1 2 0 6 10 7 7 6 1 3 3 7 6 5 4 4 5 5 8 2 3 4 3 1 5 7 3 7
17 18 19 20 21 24 23 24 24 26 26 26 27 29 30 30 32 3 2 5 2 4 2 6 6 5 5 8 5 6 7 4 5 4 4 5 4 5 4 4 3 4 3 4 6 5 3
19 19 20 22 22 23 24 26 27 27 27 27 27 28 28 31 3 4 4 4 8 3 4 6 4 6 4 6 1 2 5 5 3 8 7 4 4 6 6 6 6 6 8 8 5 2 2
19 21 23 24 24 25 26 26 28 28 28 28 27 25 24 13 4 2 5 8 5 4 2 2 1 1 3 6 5 3 1 5 5 4 6 6 2 5 7 10 6 9 6 7 6 3 4
22 22 23 24 25 26 27 27 27 29 30 29 28 23 19 1 1 6 13 8 4 4 1 2 4 4 6 2 2 3 3 5 2 5 1 5 2 5 7 7 9 6 3 5 5 3 2
21 22 23 24 25 26 27 28 28 30 32 30 30 24 8 3 3 6 6 4 4 2 7 4 3 4 5 2 2 2 4 4 3 4 1 2 1 6 4 2 3 5 6 2 2 3 5
22 23 23 24 25 26 27 28 28 29 32 33 32 22 8 4 4 6 4 5 8 5 4 5 3 4 5 3 1 3 4 4 7 4 3 4 1 6 8 2 1 2 7 5 5 5 3
22 22 23 25 24 26 27 28 28 29 30 31 24 3 3 3 5 2 4 6 2 4 5 7 3 7 7 6 4 6 4 4 6 4 5 3 2 5 4 6 2 2 4 1 7 4 3
22 23 24 25 25 26 27 28 29 30 32 28 2 4 4 7 7 5 5 5 2 8 6 6 6 5 5 8 5 5 5 5 3 8 1 1 3 2 5 5 7 7 2 3 4 4 3
23 23 23 23 25 25 26 27 29 31 31 17 3 4 4 7 3 5 4 3 5 11 7 8 7 6 4 5 5 4 6 4 7 6 9 2 3 5 2 6 4 7 5 5 3 4 5
21 21 23 24 24 25 26 26 28 28 30 8 2 4 7 3 5 2 3 5 8 13 11 8 5 6 5 8 8 5 5 7 9 3 4 4 4 4 4 7 6 10 5 4 4 5 2
21 22 24 23 24 25 26 26 27 25 14 1 3 2 5 5 4 4 5 5 9 13 9 6 8 7 6 6 6 6 5 8 14 5 2 4 4 3 4 6 8 7 6 4 4 3 3
21 22 22 22 23 24 25 27 29 27 11 3 3 4 5 5 2 5 4 6 4 10 8 5 6 4 6 9 10 4 5 7 9 8 14 7 4 4 4 3 3 3 5 5 5 4 4
19 20 21 21 22 23 25 26 31 31 4 3 4 1 2 3 5 6 5 5 7 5 5 10 7 10 3 5 4 4 6 6 6 14 7 5 4 2 2 2 2 2 4 5 3 4 4
17 18 19 19 21 22 24 26 30 32 7 4 3 3 4 2 2 6 6 5 6 5 5 5 5 5 8 5 3 1 1 2 1 7 6 5 2 2 6 4 5 2 4 5 6 3 2
16 15 16 17 18 20 22 25 29 33 9 4 2 2 4 5 4 4 3 2 3 1 6 2 3 3 5 2 4 6 5 3 2 1 2 3 3 3 3 6 6 5 6 5 2 3 3
15 14 15 15 16 18 19 21 25 26 12 3 0 2 4 2 3 2 1 2 3 3 3 1 2 2 3 3 1 4 4 3 3 1 3 4 3 2 2 4 1 5 3 5 8 5 4
13 12 13 13 13 15 17 19 22 24 22 4 1 3 3 1 0 1 2 1 3 5 2 1 4 2 3 6 4 5 5 4 7 6 5 2 4 2 4 3 5 4 4 4 2 4 3
11 11 11 11 11 13 15 16 19 22 24 3 2 1 3 5 3 2 3 2 1 2 5 3 3 4 7 3 4 3 1 2 3 6 6 5 6 4 3 3 5 5 3 7 3 3 3
10 10 9 10 10 11 13 15 16 19 21 3 1 2 4 3 3 3 2 3 4 3 1 3 3 5 4 3 3 2 1 1 1 0 3 3 3 3 3 4 6 2 6 4 3 2 2
8 8 8 8 8 8 11 12 14 16 19 4 1 6 3 2 4 4 5 4 3 3 3 3 4 4 3 4 3 2 2 2 1 2 2 3 3 2 2 2 7 2 2 3 0 2 2
7 7 7 7 6 8 9 10 11 13 17 6 2 5 2 3 5 3 4 5 8 9 5 1 6 4 4 4 2 2 1 0 1 3 3 2 5 4 6 4 2 2 4 3 1 3 3
Wind_Direction
355 353 351 349 347 347 345 344 343 342 341 339 337 336 335 333 332 330 327 325 323 322 317 311 307 289 355 304 250 151 148 154 143 151 170 159 149 166 189 208 188 239 269 267 260 190 132
356 352 350 347 345 344 343 342 342 341 340 337 336 334 333 332 331 329 325 321 318 316 309 300 282 150 150 264 198 136 141 134 151 148 168 166 189 192 205 258 201 250 273 284 260 154 148
347 352 349 346 345 343 343 342 341 341 338 335 335 334 333 330 329 327 322 317 313 308 295 279 203 177 242 232 336 144 142 177 165 170 159 208 135 126 12 292 271 257 273 291 62 138 140
346 347 349 345 344 343 343 341 339 338 335 333 332 332 330 328 326 324 320 313 309 295 269 231 179 174 243 233 153 140 159 128 170 178 103 169 97 327 194 287 328 282 28 13 178 157 154
349 353 348 344 343 341 340 337 337 335 332 329 330 329 327 324 323 322 320 315 312 257 189 165 134 166 267 303 172 202 164 162 134 128 270 161 146 214 278 187 17 358 264 346 107 223 153
356 352 347 345 342 341 337 336 335 334 331 328 326 325 323 320 321 323 325 314 102 101 137 178 255 324 272 220 188 158 178 145 146 131 146 175 120 147 39 83 194 167 4 5 284 189 141
353 351 346 344 342 339 338 336 335 332 329 327 325 323 321 319 319 321 338 10 28 42 211 198 182 261 267 306 128 151 160 132 106 112 143 187 128 199 214 191 185 155 195 281 222 196 174
353 350 347 344 341 339 337 336 334 326 326 326 324 321 318 319 318 319 145 311 290 268 304 230 225 257 269 170 279 162 123 131 140 161 129 58 212 213 240 209 208 232 298 300 296 315 191
350 344 342 341 340 340 338 332 327 324 325 325 323 319 321 320 317 318 250 233 304 259 165 294 195 194 219 144 211 216 127 134 142 138 141 143 223 162 178 255 224 261 181 220 234 312 48
347 341 340 339 340 335 332 330 327 325 324 323 321 320 323 326 324 326 262 302 305 191 61 278 219 250 159 142 206 152 166 140 132 183 154 197 240 195 221 230 154 262 183 229 242 111 274
343 343 342 337 335 333 332 331 326 323 322 321 319 322 325 327 292 310 312 317 308 58 71 135 187 67 93 140 153 35 353 55 137 122 107 228 215 185 208 227 152 236 182 183 206 181 93
345 342 339 338 336 335 334 330 326 323 321 322 320 323 329 163 243 250 303 317 49 35 103 128 123 142 93 13 51 106 84 50 79 122 70 218 236 157 213 217 190 232 139 58 51 110 61
342 337 339 338 339 339 334 329 328 325 322 324 324 319 301 261 244 322 314 39 50 66 328 359 127 111 108 135 112 100 112 51 103 100 175 340 34 325 33 252 16 102 74 335 39 54 190
339 338 340 344 343 342 334 329 329 328 324 327 326 322 195 224 271 355 29 59 61 319 301 308 350 103 99 145 23 66 65 57 25 56 92 142 70 4 324 33 163 199 153 152 169 168 192
339 340 344 345 346 344 336 331 331 330 327 333 323 338 281 285 187 105 68 56 346 310 296 327 23 55 4 358 115 85 52 42 29 17 119 132 108 328 7 37 53 298 42 247 104 12 76
340 344 347 348 347 342 336 333 333 333 333 339 29 350 297 302 160 55 64 99 42 356 351 34 83 37 48 346 57 72 30 347 26 24 129 130 114 350 303 20 22 78 316 54 11 122 159
341 346 347 347 345 339 339 337 336 335 336 336 34 34 282 342 69 42 73 55 44 356 42 48 14 45 43 16 42 56 8 11 7 348 62 59 64 302 41 19 345 16 11 11 111 85 143
340 337 344 346 343 342 341 340 339 339 339 39 49 43 325 25 49 20 33 350 22 2 15 34 62 57 41 26 34 72 64 9 340 1 44 340 125 70 51 326 78 92 63 88 97 329 16
338 342 341 348 345 344 343 342 342 341 2 46 72 291 321 51 85 6 347 42 56 25 17 27 16 32 25 30 83 48 50 354 2 47 49 334 20 45 18 352 10 46 7 34 108 57 9
339 347 347 347 347 346 346 347 344 344 343 99 73 22 341 31 24 100 49 9 53 30 45 30 21 47 46 30 22 64 28 5 6 21 42 72 62 103 155 163 221 18 28 43 84 75 298
342 345 346 348 348 350 348 354 348 351 103 86 35 323 191 353 2 54 59 16 45 17 29 18 37 30 37 63 44 44 3 350 357 1 24 80 90 85 133 215 106 141 57 77 89 197 169
338 346 344 349 351 353 353 359 355 355 148 72 84 79 19 27 348 41 20 4 38 356 42 358 84 47 50 84 129 138 77 40 34 343 35 358 145 83 356 353 36 336 234 198 224 162 212
334 345 345 349 356 356 359 5 3 2 39 74 341 14 96 317 19 58 335 34 21 40 23 60 109 90 32 360 198 203 197 191 163 96 46 55 106 68 308 327 349 60 61 67 98 350 290
333 340 345 349 358 1 2 11 11 10 42 113 109 93 74 353 64 118 85 59 46 37 126 232 51 95 295 323 74 56 83 158 164 22 142 121 94 94 191 11 322 233 256 157 129 81 40
330 336 342 348 359 2 6 13 16 9 19 75 40 93 103 74 158 81 102 75 13 342 24 82 355 303 304 41 54 40 358 42 28 54 54 119 122 97 139 191 295 292 70 59 351 196 100
326 331 337 343 358 4 9 15 20 10 14 86 45 106 99 115 309 294 104 48 131 360 358 13 26 355 55 64 55 93 118 218 320 354 44 66 70 117 143 155 229 241 31 328 269 274 73
326 325 333 340 354 2 10 14 21 11 11 78 23 48 92 104 265 131 151 165 140 115 172 296 353 20 53 35 58 107 221 14 182 339 350 23 15 143 189 204 281 23 304 287 178 233 18
324 318 327 333 347 358 8 12 22 12 7 38 271 11 101 143 270 199 168 147 123 120 148 250 40 3 45 63 94 294 81 262 20 259 190 154 149 215 162 218 269 8 348 184 357 203 197
322 313 316 325 338 354 5 9 19 15 4 11 20 349 355 136 229 261 246 197 182 181 136 78 167 167 169 96 88 105 93 115 126 277 3 223 181 191 197 221 185 174 186 263 234 269 270